N6SPP Weather Reports


time (UTC)temp
F
wind
direction
speed
knots
gust
knots
rain 1hr
in
rain 24hr
in
rain mn
in
humidity
%
barometer
mb
20260902080826 62 152 1.7 6.1 0.00 0.00 0.00 78 1018.1
20260902080324 62 25 0.9 3.5 0.00 0.00 0.00 77 1018.5
20260902075822 62 326 0.9 1.7 0.00 0.00 0.00 77 1018.7
20260902075319 62 22 0.9 3.5 0.00 0.00 0.00 76 1018.6
20260902074814 62 158 1.7 2.6 0.00 0.00 0.00 76 1018.4
20260902074309 62 113 0.9 1.7 0.00 0.00 0.00 76 1018.6
20260902073804 62 8 2.6 3.5 0.00 0.00 0.00 76 1018.5
20260902073300 62 36 1.7 1.7 0.00 0.00 0.00 75 1018.5
20260902072756 63 128 0.9 5.2 0.00 0.00 0.00 75 1018.6
20260902072251 63 222 1.7 5.2 0.00 0.00 0.00 74 1018.6
20260902071748 63 193 1.7 6.1 0.00 0.00 0.00 73 1018.4
20260902071243 62 162 2.6 3.5 0.00 0.00 0.00 74 1018.6
20260902070739 62 173 3.5 7.0 0.00 0.00 0.00 74 1018.6
20260902070239 63 188 1.7 5.2 0.00 0.00 0.00 74 1018.7
20260902065738 63 221 3.5 6.1 0.00 0.00 0.00 74 1018.5
20260902065233 63 194 3.5 6.1 0.00 0.00 0.00 73 1018.5
20260902064728 63 178 3.5 5.2 0.00 0.00 0.00 73 1018.3
20260902064224 63 108 0.9 3.5 0.00 0.00 0.00 74 1018.5
20260902063720 63 226 1.7 3.5 0.00 0.00 0.00 74 1018.5
20260902063220 63 228 0.9 2.6 0.00 0.00 0.00 74 1018.6
20260902062714 63 204 2.6 5.2 0.00 0.00 0.00 75 1018.5
20260902062209 63 222 3.5 5.2 0.00 0.00 0.00 75 1018.4
20260902061708 63 204 2.6 7.0 0.00 0.00 0.00 75 1018.7
20260902061203 63 99 1.7 3.5 0.00 0.00 0.00 75 1018.7
20260902060700 63 178 3.5 5.2 0.00 0.00 0.00 75 1018.7
20260902060156 63 179 3.5 5.2 0.00 0.00 0.00 75 1018.5
20260902055651 62 215 3.5 5.2 0.00 0.00 0.00 75 1018.6
20260902055147 62 163 1.7 3.5 0.00 0.00 0.00 75 1018.6
20260902054642 62 180 3.5 5.2 0.00 0.00 0.00 75 1018.6
20260902054137 62 209 2.6 6.1 0.00 0.00 0.00 75 1018.8
20260902053632 62 192 4.3 7.0 0.00 0.00 0.00 75 1018.9
20260902053126 62 309 1.7 5.2 0.00 0.00 0.00 75 1018.7
20260902052620 62 250 4.3 6.1 0.00 0.00 0.00 75 1018.7
20260902052116 62 170 1.7 6.1 0.00 0.00 0.00 75 1018.8
20260902051615 63 192 2.6 6.1 0.00 0.00 0.00 75 1019.0
20260902051115 63 206 3.5 6.1 0.00 0.00 0.00 75 1018.9
20260902050610 63 196 4.3 6.1 0.00 0.00 0.00 75 1019.0
20260902050105 63 175 5.2 6.1 0.00 0.00 0.00 75 1018.8
20260902045601 63 201 6.1 8.7 0.00 0.00 0.00 75 1018.9
20260902045056 63 163 3.5 5.2 0.00 0.00 0.00 75 1018.8
20260902044551 63 226 0.9 3.5 0.00 0.00 0.00 74 1018.9
20260902044046 63 301 0.9 7.0 0.00 0.00 0.00 74 1019.1
20260902043542 63 210 6.1 7.8 0.00 0.00 0.00 74 1018.9
20260902043037 63 232 2.6 7.8 0.00 0.00 0.00 74 1018.8
20260902042536 63 179 6.1 7.8 0.00 0.00 0.00 74 1018.7
20260902042032 63 228 3.5 7.8 0.00 0.00 0.00 74 1018.8
20260902041532 63 204 1.7 6.1 0.00 0.00 0.00 74 1018.6
20260902041026 63 248 4.3 7.8 0.00 0.00 0.00 74 1018.6
20260902040521 63 130 1.7 7.0 0.00 0.00 0.00 74 1018.7
20260902040020 63 237 2.6 7.8 0.00 0.00 0.00 74 1018.6
20260902035514 63 220 5.2 7.0 0.00 0.00 0.00 73 1018.5
20260902035010 63 199 2.6 5.2 0.00 0.00 0.00 73 1018.4
20260902034508 63 123 5.2 8.7 0.00 0.00 0.00 72 1018.6
20260902034003 64 187 4.3 12.2 0.00 0.00 0.00 72 1018.5
20260902033502 64 107 3.5 7.0 0.00 0.00 0.00 72 1018.3
20260902033002 64 158 5.2 8.7 0.00 0.00 0.00 71 1018.5
20260902032456 64 212 7.0 11.3 0.00 0.00 0.00 71 1018.2
20260902031951 64 208 0.9 6.1 0.00 0.00 0.00 70 1018.1
20260902031446 64 225 3.5 5.2 0.00 0.00 0.00 70 1018.0
20260902030943 64 206 1.7 7.0 0.00 0.00 0.00 69 1018.1
20260902030442 64 145 2.6 7.0 0.00 0.00 0.00 69 1018.1
20260902025940 64 232 1.7 6.1 0.00 0.00 0.00 68 1018.0
20260902025436 64 156 3.5 7.0 0.00 0.00 0.00 67 1018.1
20260902024931 64 212 1.7 8.7 0.00 0.00 0.00 67 1018.0
20260902024427 64 231 4.3 7.0 0.00 0.00 0.00 66 1017.9
20260902023921 65 229 3.5 14.8 0.00 0.00 0.00 64 1018.0
20260902023417 65 335 3.5 8.7 0.00 0.00 0.00 63 1018.1
20260902022916 65 296 4.3 6.1 0.00 0.00 0.00 62 1018.1
20260902022412 65 210 4.3 7.8 0.00 0.00 0.00 62 1017.9
20260902021907 66 145 6.1 7.8 0.00 0.00 0.00 61 1017.8
20260902021402 66 290 4.3 7.0 0.00 0.00 0.00 60 1017.8
20260902020858 66 233 7.0 8.7 0.00 0.00 0.00 59 1017.7
20260902020354 67 97 3.5 5.2 0.00 0.00 0.00 58 1017.6
20260902015849 67 293 2.6 7.0 0.00 0.00 0.00 58 1017.6
20260902015344 67 204 3.5 3.5 0.00 0.00 0.00 58 1017.6
20260902014840 68 285 2.6 7.8 0.00 0.00 0.00 58 1017.6
20260902014336 68 252 3.5 7.0 0.00 0.00 0.00 57 1017.8
20260902013835 68 282 2.6 6.1 0.00 0.00 0.00 55 1017.5
20260902013331 69 263 0.9 7.8 0.00 0.00 0.00 55 1017.5
20260902012826 69 181 3.5 8.7 0.00 0.00 0.00 54 1017.6
20260902012322 69 251 6.1 9.6 0.00 0.00 0.00 54 1017.4
20260902011818 70 311 6.1 7.0 0.00 0.00 0.00 53 1017.3
20260902011312 70 235 4.3 7.8 0.00 0.00 0.00 52 1017.2
20260902010811 70 10 0.9 5.2 0.00 0.00 0.00 52 1017.4
20260902010307 71 186 1.7 12.2 0.00 0.00 0.00 51 1017.5
20260902005806 71 277 4.3 6.1 0.00 0.00 0.00 51 1017.5
20260902005300 71 254 7.0 8.7 0.00 0.00 0.00 50 1017.3
20260902004755 71 305 2.6 7.0 0.00 0.00 0.00 50 1017.4
20260902004250 71 290 4.3 6.1 0.00 0.00 0.00 50 1017.3
20260902003745 71 272 2.6 5.2 0.00 0.00 0.00 50 1017.2
20260902003241 72 244 0.9 5.2 0.00 0.00 0.00 49 1017.3
20260902002736 71 260 5.2 9.6 0.00 0.00 0.00 51 1017.3
20260902002236 72 248 3.5 7.8 0.00 0.00 0.00 50 1017.5
20260902001732 73 280 1.7 8.7 0.00 0.00 0.00 49 1017.6
20260902001231 72 293 1.7 7.8 0.00 0.00 0.00 50 1017.1
20260902000725 74 265 1.7 2.6 0.00 0.00 0.00 47 1017.2
20260902000221 73 286 0.9 9.6 0.00 0.00 0.00 48 1017.4
20260901235715 73 224 7.0 8.7 0.00 0.00 0.00 47 1017.2
20260901235210 73 293 4.3 6.1 0.00 0.00 0.00 47 1017.2
20260901234703 73 176 3.5 11.3 0.00 0.00 0.00 46 1017.2
20260901234158 74 205 4.3 6.1 0.00 0.00 0.00 46 1017.3
20260901233653 73 280 4.3 8.7 0.00 0.00 0.00 46 1017.4
20260901233149 73 174 5.2 6.1 0.00 0.00 0.00 46 1017.3
20260901232643 73 188 3.5 9.6 0.00 0.00 0.00 46 1017.4
20260901232133 74 241 1.7 12.2 0.00 0.00 0.00 46 1017.3
20260901231630 74 250 6.1 7.8 0.00 0.00 0.00 45 1017.5
20260901231126 74 288 2.6 5.2 0.00 0.00 0.00 46 1017.6
20260901230621 74 221 5.2 7.0 0.00 0.00 0.00 45 1017.6
20260901230115 74 262 2.6 5.2 0.00 0.00 0.00 44 1017.6
20260901225611 74 200 4.3 9.6 0.00 0.00 0.00 45 1017.6
20260901225110 74 197 2.6 5.2 0.00 0.00 0.00 46 1017.5
20260901224607 74 249 4.3 6.1 0.00 0.00 0.00 44 1017.5
20260901224103 74 262 1.7 6.1 0.00 0.00 0.00 46 1017.6
20260901223557 73 256 7.0 12.2 0.00 0.00 0.00 46 1017.5
20260901223053 74 271 1.7 12.2 0.00 0.00 0.00 45 1017.7
20260901222549 75 209 7.0 8.7 0.00 0.00 0.00 46 1017.7
20260901222045 75 229 3.5 9.6 0.00 0.00 0.00 45 1017.7
20260901221540 73 195 0.9 3.5 0.00 0.00 0.00 47 1017.8
20260901221035 73 166 3.5 7.0 0.00 0.00 0.00 49 1017.7
20260901220530 74 124 5.2 9.6 0.00 0.00 0.00 48 1017.8
20260901220028 73 135 2.6 6.1 0.00 0.00 0.00 48 1017.9
20260901215527 75 229 4.3 9.6 0.00 0.00 0.00 47 1017.8
20260901215027 74 174 2.6 7.8 0.00 0.00 0.00 49 1017.7
20260901214525 75 260 5.2 7.8 0.00 0.00 0.00 48 1017.7
20260901214019 74 249 3.5 7.8 0.00 0.00 0.00 48 1017.9
20260901213514 74 136 4.3 7.8 0.00 0.00 0.00 47 1018.1
20260901213008 73 215 7.0 8.7 0.00 0.00 0.00 47 1017.8
20260901212503 76 176 0.9 3.5 0.00 0.00 0.00 44 1017.8
20260901212000 74 47 5.2 8.7 0.00 0.00 0.00 46 1017.7
20260901211455 75 133 3.5 8.7 0.00 0.00 0.00 44 1017.7
20260901210951 75 285 3.5 6.1 0.00 0.00 0.00 44 1017.8
20260901210446 75 260 1.7 8.7 0.00 0.00 0.00 44 1017.8
20260901205942 75 138 3.5 8.7 0.00 0.00 0.00 45 1017.8
20260901205436 75 164 3.5 6.1 0.00 0.00 0.00 43 1018.0
20260901204931 74 333 2.6 7.0 0.00 0.00 0.00 45 1018.0
20260901204428 74 218 4.3 7.0 0.00 0.00 0.00 44 1017.9
20260901203927 75 186 5.2 7.8 0.00 0.00 0.00 44 1017.9
20260901203422 76 99 2.6 5.2 0.00 0.00 0.00 42 1018.0
20260901202918 75 123 3.5 6.1 0.00 0.00 0.00 43 1017.9
20260901202412 74 285 2.6 6.1 0.00 0.00 0.00 44 1018.3
20260901201909 74 262 3.5 7.0 0.00 0.00 0.00 45 1018.2
20260901201408 73 211 3.5 6.1 0.00 0.00 0.00 46 1018.1
20260901200902 73 205 2.6 5.2 0.00 0.00 0.00 45 1018.2
20260901200357 73 292 1.7 7.0 0.00 0.00 0.00 46 1018.5
20260901195855 75 237 3.5 7.0 0.00 0.00 0.00 45 1018.4
20260901195349 74 243 3.5 6.1 0.00 0.00 0.00 45 1018.5
20260901194844 73 322 7.8 9.6 0.00 0.00 0.00 45 1018.4
20260901194338 74 267 4.3 6.1 0.00 0.00 0.00 45 1018.4
20260901193835 73 148 1.7 7.0 0.00 0.00 0.00 46 1018.4
20260901193334 73 23 0.9 7.8 0.00 0.00 0.00 46 1018.5
20260901192829 73 281 4.3 7.8 0.00 0.00 0.00 47 1018.7
20260901192325 71 332 3.5 7.8 0.00 0.00 0.00 50 1018.7
20260901191820 72 283 3.5 11.3 0.00 0.00 0.00 49 1018.5
20260901191315 73 218 1.7 7.0 0.00 0.00 0.00 49 1018.6
20260901190811 73 335 4.3 7.0 0.00 0.00 0.00 48 1018.6
20260901190305 72 118 2.6 6.1 0.00 0.00 0.00 49 1018.6
20260901185803 73 158 3.5 7.0 0.00 0.00 0.00 48 1018.9
20260901185305 71 171 3.5 6.1 0.00 0.00 0.00 51 1018.8
20260901184758 71 184 5.2 6.1 0.00 0.00 0.00 51 1018.9
20260901184253 71 118 4.3 7.8 0.00 0.00 0.00 51 1018.8
20260901183749 72 225 2.6 5.2 0.00 0.00 0.00 51 1018.8
20260901183249 71 307 3.5 7.0 0.00 0.00 0.00 51 1019.0
20260901182745 71 225 1.7 5.2 0.00 0.00 0.00 52 1018.7
20260901182244 72 293 2.6 6.1 0.00 0.00 0.00 52 1018.8
20260901181739 70 163 2.6 7.8 0.00 0.00 0.00 54 1018.7
20260901181233 70 297 3.5 7.0 0.00 0.00 0.00 56 1018.7
20260901180727 69 225 3.5 6.1 0.00 0.00 0.00 57 1018.8
20260901180227 70 159 0.9 7.8 0.00 0.00 0.00 56 1018.6
20260901175726 70 283 2.6 6.1 0.00 0.00 0.00 55 1018.3
20260901175221 70 220 4.3 7.8 0.00 0.00 0.00 57 1018.5
20260901174716 69 47 2.6 5.2 0.00 0.00 0.00 56 1018.5
20260901174211 70 258 2.6 3.5 0.00 0.00 0.00 55 1018.6
20260901173707 69 138 3.5 6.1 0.00 0.00 0.00 58 1018.4
20260901173201 69 136 1.7 6.1 0.00 0.00 0.00 58 1018.4
20260901172658 69 307 2.6 7.0 0.00 0.00 0.00 57 1018.3
20260901172155 69 262 3.5 5.2 0.00 0.00 0.00 56 1018.2
20260901171649 69 324 2.6 6.1 0.00 0.00 0.00 56 1018.3
20260901171148 69 80 0.9 7.0 0.00 0.00 0.00 56 1018.4
20260901170643 69 199 2.6 7.0 0.00 0.00 0.00 56 1018.1
20260901170143 69 302 3.5 6.1 0.00 0.00 0.00 56 1018.1
20260901165641 69 168 1.7 6.1 0.00 0.00 0.00 56 1018.1
20260901165132 69 203 4.3 9.6 0.00 0.00 0.00 57 1018.1
20260901164628 68 87 1.7 6.1 0.00 0.00 0.00 57 1018.1
20260901164123 68 39 2.6 3.5 0.00 0.00 0.00 58 1018.1
20260901163618 68 212 4.3 7.0 0.00 0.00 0.00 62 1018.0
20260901163117 68 176 3.5 8.7 0.00 0.00 0.00 63 1018.0
20260901162612 68 247 4.3 7.8 0.00 0.00 0.00 62 1018.4
20260901162111 67 97 3.5 7.0 0.00 0.00 0.00 62 1018.1
20260901161610 67 171 3.5 7.0 0.00 0.00 0.00 62 1018.1
20260901161110 67 192 4.3 7.8 0.00 0.00 0.00 62 1018.2
20260901160607 67 308 3.5 9.6 0.00 0.00 0.00 59 1018.0
20260901155601 67 135 0.9 6.1 0.00 0.00 0.00 64 1017.5
20260901155056 66 222 5.2 7.0 0.00 0.00 0.00 64 1017.8
20260901154556 66 269 3.5 7.0 0.00 0.00 0.00 65 1017.7
20260901154045 66 172 5.2 7.8 0.00 0.00 0.00 66 1017.8
20260901153540 66 10 2.6 7.8 0.00 0.00 0.00 65 1017.5
20260901153034 65 189 5.2 7.8 0.00 0.00 0.00 65 1017.5
20260901152529 65 180 4.3 8.7 0.00 0.00 0.00 69 1017.6
20260901152028 64 183 3.5 8.7 0.00 0.00 0.00 70 1017.3
20260901151524 65 205 4.3 7.8 0.00 0.00 0.00 69 1017.3
20260901151023 64 184 2.6 8.7 0.00 0.00 0.00 67 1017.3
20260901150521 64 211 2.6 7.0 0.00 0.00 0.00 67 1017.3
20260901150019 64 345 2.6 7.8 0.00 0.00 0.00 65 1017.0
20260901145512 64 181 1.7 7.0 0.00 0.00 0.00 66 1017.1
20260901145007 64 144 1.7 6.1 0.00 0.00 0.00 67 1017.0
20260901144503 64 201 3.5 7.8 0.00 0.00 0.00 69 1016.9
20260901143957 63 174 1.7 6.1 0.00 0.00 0.00 69 1017.1
20260901143453 63 136 3.5 8.7 0.00 0.00 0.00 70 1016.8
20260901142949 63 55 2.6 7.8 0.00 0.00 0.00 68 1016.8
20260901142444 63 97 2.6 7.0 0.00 0.00 0.00 70 1016.9
20260901141938 62 141 1.7 3.5 0.00 0.00 0.00 71 1016.7
20260901141433 62 230 2.6 5.2 0.00 0.00 0.00 71 1016.7
20260901140928 62 237 5.2 7.0 0.00 0.00 0.00 71 1016.7
20260901140426 62 137 2.6 9.6 0.00 0.00 0.00 72 1016.6
20260901135920 62 218 3.5 5.2 0.00 0.00 0.00 71 1016.7
20260901135415 61 196 2.6 5.2 0.00 0.00 0.00 72 1016.6
20260901134911 61 150 2.6 6.1 0.00 0.00 0.00 73 1016.4
20260901134407 61 224 3.5 6.1 0.00 0.00 0.00 74 1016.4
20260901133906 61 231 6.1 7.8 0.00 0.00 0.00 74 1016.3
20260901133400 61 225 5.2 8.7 0.00 0.00 0.00 74 1016.1
20260901132858 61 170 1.7 3.5 0.00 0.00 0.00 75 1016.2
20260901132353 61 186 1.7 6.1 0.00 0.00 0.00 74 1016.3
20260901131847 61 160 4.3 6.1 0.00 0.00 0.00 73 1016.3
20260901131346 61 191 4.3 8.7 0.00 0.00 0.00 74 1016.1
20260901130842 61 192 3.5 6.1 0.00 0.00 0.00 75 1016.3
20260901130337 61 208 2.6 7.0 0.00 0.00 0.00 78 1016.4
20260901125835 61 218 1.7 5.2 0.00 0.00 0.00 79 1016.3
20260901125334 61 203 4.3 7.0 0.00 0.00 0.00 79 1016.1
20260901124829 61 197 1.7 6.1 0.00 0.00 0.00 79 1015.9
20260901124324 60 203 3.5 6.1 0.00 0.00 0.00 79 1016.2
20260901123824 60 151 2.6 5.2 0.00 0.00 0.00 79 1016.0
20260901123319 60 176 2.6 3.5 0.00 0.00 0.00 79 1016.1
20260901122817 61 188 2.6 3.5 0.00 0.00 0.00 79 1016.0
20260901122312 61 153 4.3 7.8 0.00 0.00 0.00 78 1015.8
20260901121811 61 153 5.2 7.8 0.00 0.00 0.00 77 1015.7
20260901121307 61 197 1.7 7.0 0.00 0.00 0.00 78 1015.6
20260901120806 61 170 3.5 7.8 0.00 0.00 0.00 78 1015.6
20260901120301 61 203 6.1 8.7 0.00 0.00 0.00 78 1015.6
20260901115757 61 295 2.6 8.7 0.00 0.00 0.00 77 1015.9
20260901115252 61 306 4.3 8.7 0.00 0.00 0.00 77 1015.6
20260901114749 61 200 2.6 7.8 0.00 0.00 0.00 76 1015.9
20260901114245 61 189 3.5 7.0 0.00 0.00 0.00 75 1015.8
20260901113742 61 174 5.2 7.8 0.00 0.00 0.00 75 1015.8
20260901113237 61 155 3.5 7.0 0.00 0.00 0.00 76 1015.6
20260901112732 61 190 5.2 8.7 0.00 0.00 0.00 76 1015.8
20260901112232 61 296 3.5 7.0 0.00 0.00 0.00 76 1015.9
20260901111727 61 95 3.5 7.8 0.00 0.00 0.00 76 1016.0
20260901111226 61 175 1.7 5.2 0.00 0.00 0.00 76 1015.8
20260901110720 61 212 2.6 8.7 0.00 0.00 0.00 76 1015.6
20260901110215 61 219 2.6 7.0 0.00 0.00 0.00 75 1015.8
20260901105712 61 167 3.5 6.1 0.00 0.00 0.00 75 1015.7
20260901105212 61 214 4.3 9.6 0.00 0.00 0.00 75 1015.7
20260901104708 61 188 2.6 5.2 0.00 0.00 0.00 75 1015.7
20260901104203 61 189 4.3 7.8 0.00 0.00 0.00 75 1015.7
20260901103702 61 225 2.6 6.1 0.00 0.00 0.00 75 1015.4
20260901103158 61 260 3.5 7.8 0.00 0.00 0.00 75 1015.5
20260901102658 61 234 3.5 7.8 0.00 0.00 0.00 75 1015.5
20260901102157 61 185 4.3 6.1 0.00 0.00 0.00 75 1015.5
20260901101653 61 238 4.3 8.7 0.00 0.00 0.00 74 1015.4
20260901101153 61 207 5.2 7.8 0.00 0.00 0.00 74 1015.3
20260901100647 61 217 5.2 7.0 0.00 0.00 0.00 73 1015.3
20260901100142 61 240 3.5 7.8 0.00 0.00 0.00 73 1015.3
20260901095640 61 347 3.5 8.7 0.00 0.00 0.00 74 1015.2
20260901095138 61 148 3.5 7.0 0.00 0.00 0.00 74 1015.2
20260901094632 61 282 6.1 13.9 0.00 0.00 0.00 73 1015.3
20260901094126 61 293 2.6 7.8 0.00 0.00 0.00 72 1015.4
20260901093616 61 166 2.6 6.1 0.00 0.00 0.00 74 1015.3
20260901093115 61 263 4.3 7.8 0.00 0.00 0.00 74 1015.5
20260901092611 61 312 2.6 6.1 0.00 0.00 0.00 74 1015.4
20260901092107 61 303 2.6 6.1 0.00 0.00 0.00 74 1015.7
20260901091603 61 200 2.6 7.8 0.00 0.00 0.00 74 1015.5
20260901091058 61 220 6.1 8.7 0.00 0.00 0.00 74 1015.4
20260901090557 61 154 5.2 9.6 0.00 0.00 0.00 73 1015.5
20260901090053 61 174 4.3 7.0 0.00 0.00 0.00 73 1015.4
20260901085548 61 187 3.5 8.7 0.00 0.00 0.00 73 1015.5
20260901085044 61 136 5.2 9.6 0.00 0.00 0.00 73 1015.5
20260901084540 61 165 5.2 7.0 0.00 0.00 0.00 73 1015.4
20260901084036 61 174 4.3 8.7 0.00 0.00 0.00 73 1015.5
20260901083530 61 186 2.6 7.0 0.00 0.00 0.00 73 1015.4
20260901083028 61 203 3.5 8.7 0.00 0.00 0.00 73 1015.6
20260901082524 61 209 5.2 8.7 0.00 0.00 0.00 73 1015.5
20260901082019 61 231 6.1 7.8 0.00 0.00 0.00 73 1015.5
20260901081514 61 201 5.2 7.8 0.00 0.00 0.00 73 1015.7